TimeMST,TemperatureF,Dew PointF,Humidity,Sea Level PressureIn,VisibilityMPH,Wind Direction,Wind SpeedMPH,Gust SpeedMPH,PrecipitationIn,Events,Conditions,WindDirDegrees,DateUTC
12:52 AM,27.0,24.1,89,29.94,10.0,Calm,Calm,-,0.00,,Overcast,0,2013-02-25 07:52:00
1:52 AM,26.1,23.0,88,29.95,10.0,Calm,Calm,-,N/A,,Overcast,0,2013-02-25 08:52:00
2:52 AM,26.6,23.0,86,29.94,10.0,South,4.6,-,N/A,,Overcast,180,2013-02-25 09:52:00
3:52 AM,28.9,16.0,58,29.97,10.0,NNW,8.1,-,N/A,,Mostly Cloudy,340,2013-02-25 10:52:00
4:52 AM,28.0,14.0,56,30.01,10.0,NNW,8.1,-,N/A,,Scattered Clouds,340,2013-02-25 11:52:00
5:52 AM,26.1,14.0,60,30.04,10.0,North,11.5,-,N/A,,Partly Cloudy,360,2013-02-25 12:52:00
6:52 AM,25.0,14.0,63,30.07,10.0,NNE,9.2,-,N/A,,Partly Cloudy,20,2013-02-25 13:52:00
7:52 AM,28.0,14.0,56,30.10,10.0,NNW,8.1,-,N/A,,Clear,330,2013-02-25 14:52:00
8:52 AM,30.0,15.1,54,30.12,10.0,NW,8.1,-,N/A,,Partly Cloudy,320,2013-02-25 15:52:00
9:52 AM,34.0,16.0,48,30.10,10.0,North,8.1,-,N/A,,Partly Cloudy,10,2013-02-25 16:52:00
10:52 AM,36.0,18.0,48,30.11,10.0,NE,5.8,-,N/A,,Partly Cloudy,40,2013-02-25 17:52:00
11:52 AM,41.0,10.9,29,30.05,10.0,NNW,15.0,20.7,N/A,,Clear,340,2013-02-25 18:52:00
12:52 PM,44.1,6.1,21,30.00,10.0,NW,12.7,21.9,N/A,,Clear,320,2013-02-25 19:52:00
1:52 PM,46.9,3.9,17,29.96,10.0,NW,12.7,26.5,N/A,,Clear,310,2013-02-25 20:52:00
2:52 PM,48.0,1.9,15,29.94,10.0,NNW,18.4,-,N/A,,Clear,330,2013-02-25 21:52:00
3:52 PM,48.0,1.0,14,29.92,10.0,NW,13.8,23.0,N/A,,Clear,320,2013-02-25 22:52:00
4:52 PM,46.9,-0.9,14,29.92,10.0,NW,12.7,24.2,N/A,,Clear,310,2013-02-25 23:52:00
5:52 PM,46.0,1.9,16,29.94,10.0,WNW,10.4,-,N/A,,Clear,300,2013-02-26 00:52:00
6:52 PM,44.1,-0.0,16,29.96,10.0,NNW,10.4,-,N/A,,Clear,340,2013-02-26 01:52:00
7:52 PM,41.0,1.0,19,29.96,10.0,North,8.1,-,N/A,,Clear,350,2013-02-26 02:52:00
8:52 PM,39.0,3.9,23,29.99,10.0,WNW,6.9,-,N/A,,Clear,300,2013-02-26 03:52:00
9:52 PM,37.0,1.0,22,29.98,10.0,Calm,Calm,-,N/A,,Clear,0,2013-02-26 04:52:00
10:52 PM,36.0,1.9,24,29.97,10.0,SW,5.8,-,N/A,,Clear,220,2013-02-26 05:52:00
11:52 PM,28.9,10.0,45,29.96,10.0,Calm,Calm,-,N/A,,Clear,0,2013-02-26 06:52:00